User: anonymous   Login
Location: Clatteringshaws Loch
(55.0508°N, 4.2860°W)
Time: 03:24:41
(UTC+00:00)
Language:

Cosmos 2221 Rocket - Orbit

View from above orbital plane
View from above orbital plane
View from above satellite
View from above satellite

Ground track
Ground track

The orbit data is extracted from the following two-line orbital elements,

1 22237U 92080B   14354.18726382  .00000306  00000-0  39154-4 0  5215
2 22237 082.5125 244.0888 0018380 302.3789 169.3576 14.78007175189002
Epoch (UTC): 20 December 2014 04:29:39
Eccentricity: 0.0018380
inclination: 82.5125°
perigee height: 623 km
apogee height: 648 km
right ascension of ascending node: 244.0888°
argument of perigee: 302.3789°
revolutions per day: 14.78007175
mean anomaly at epoch: 169.3576°
orbit number at epoch: 18900

The dashed part of the orbit path shows where the satellite is in the earth's shadow,  

DLR